TimeMST,TemperatureF,Dew PointF,Humidity,Sea Level PressureIn,VisibilityMPH,Wind Direction,Wind SpeedMPH,Gust SpeedMPH,PrecipitationIn,Events,Conditions,WindDirDegrees,DateUTC
12:15 AM,-7.6,-11.2,84,30.44,1.5,Calm,Calm,-,N/A,,Mostly Cloudy,0,2013-01-02 07:15:00
12:24 AM,-7.6,-9.4,92,30.44,0.5,Calm,Calm,-,N/A,Fog,Light Freezing Fog,0,2013-01-02 07:24:00
12:38 AM,-7.6,-9.4,92,30.44,0.5,Calm,Calm,-,N/A,Fog,Light Freezing Fog,0,2013-01-02 07:38:00
12:53 AM,-4.0,-7.1,87,30.69,0.2,Calm,Calm,-,N/A,Fog,Light Freezing Fog,0,2013-01-02 07:53:00
12:56 AM,-4.0,-7.6,85,30.44,0.5,Calm,Calm,-,N/A,Fog,Light Freezing Fog,0,2013-01-02 07:56:00
1:03 AM,-5.8,-9.4,84,30.44,0.2,NNW,3.5,-,N/A,Fog,Light Freezing Fog,340,2013-01-02 08:03:00
1:27 AM,-9.4,-14.8,77,30.44,0.5,Calm,Calm,-,N/A,Fog,Light Freezing Fog,0,2013-01-02 08:27:00
1:39 AM,-9.4,-11.2,92,30.44,3.0,Calm,Calm,-,N/A,,Overcast,0,2013-01-02 08:39:00
1:48 AM,-9.4,-13.0,84,30.44,0.8,North,3.5,-,N/A,,Mist,350,2013-01-02 08:48:00
1:50 AM,-9.4,-13.0,84,30.44,0.2,Calm,Calm,-,N/A,Fog,Light Freezing Fog,0,2013-01-02 08:50:00
1:53 AM,-9.0,-13.0,83,30.72,0.2,Calm,Calm,-,N/A,Fog,Light Freezing Fog,0,2013-01-02 08:53:00
2:53 AM,-8.0,-9.9,91,30.73,0.2,Calm,Calm,-,N/A,Fog,Light Freezing Fog,0,2013-01-02 09:53:00
3:26 AM,-7.6,-9.4,92,30.45,0.2,Calm,Calm,-,N/A,Fog,Light Freezing Fog,0,2013-01-02 10:26:00
3:53 AM,-7.1,-9.9,87,30.72,0.2,Calm,Calm,-,N/A,Fog,Light Freezing Fog,0,2013-01-02 10:53:00
4:17 AM,-5.8,-9.4,84,30.44,1.0,Calm,Calm,-,N/A,,Overcast,0,2013-01-02 11:17:00
4:23 AM,-5.8,-9.4,84,30.44,3.0,Calm,Calm,-,N/A,,Overcast,0,2013-01-02 11:23:00
4:53 AM,-7.6,-11.2,84,30.45,4.0,NNE,3.5,-,N/A,,Overcast,30,2013-01-02 11:53:00
5:05 AM,-7.6,-11.2,84,30.45,1.8,NE,4.6,-,N/A,,Overcast,50,2013-01-02 12:05:00
5:20 AM,-7.6,-11.2,84,30.45,0.8,Calm,Calm,-,N/A,,Mist,0,2013-01-02 12:20:00
5:36 AM,-5.8,-9.4,84,30.45,0.2,Calm,Calm,-,N/A,Fog,Light Freezing Fog,0,2013-01-02 12:36:00
5:48 AM,-5.8,-9.4,84,30.45,0.2,Calm,Calm,-,N/A,Fog,Light Freezing Fog,0,2013-01-02 12:48:00
5:53 AM,-7.1,-9.0,91,30.77,0.2,Calm,Calm,-,N/A,Fog,Light Freezing Fog,0,2013-01-02 12:53:00
6:53 AM,-7.1,-9.0,91,30.73,0.2,Calm,Calm,-,N/A,Fog,Light Freezing Fog,0,2013-01-02 13:53:00
7:45 AM,-11.2,-14.8,84,30.45,0.5,Calm,Calm,-,N/A,Fog,Light Freezing Fog,0,2013-01-02 14:45:00
7:53 AM,-11.9,-15.0,86,30.80,0.5,North,4.6,-,N/A,Fog,Light Freezing Fog,10,2013-01-02 14:53:00
8:53 AM,-9.0,-11.0,91,30.80,0.8,South,3.5,-,N/A,,Scattered Clouds,190,2013-01-02 15:53:00
9:53 AM,-5.1,-8.0,87,30.83,2.5,Calm,Calm,-,N/A,,Scattered Clouds,0,2013-01-02 16:53:00
10:27 AM,-2.2,-4.0,92,30.48,5.0,WSW,3.5,-,0.00,Snow,Light Snow,240,2013-01-02 17:27:00
10:53 AM,-0.0,-0.9,96,30.80,5.0,Calm,Calm,-,0.00,Snow,Light Snow,0,2013-01-02 17:53:00
11:53 AM,3.0,1.0,91,30.79,5.0,WSW,3.5,-,0.00,,Partly Cloudy,250,2013-01-02 18:53:00
12:53 PM,3.9,1.0,88,30.76,5.0,Calm,Calm,-,0.00,,Partly Cloudy,0,2013-01-02 19:53:00
1:53 PM,5.0,-0.0,80,30.75,5.0,WSW,3.5,-,N/A,,Haze,240,2013-01-02 20:53:00
2:02 PM,5.0,1.4,85,30.44,5.0,WSW,3.5,-,N/A,,Partly Cloudy,250,2013-01-02 21:02:00
2:53 PM,9.0,1.0,70,30.72,7.0,Calm,Calm,-,N/A,,Partly Cloudy,0,2013-01-02 21:53:00
3:53 PM,8.1,1.0,73,30.73,7.0,Calm,Calm,-,N/A,,Partly Cloudy,0,2013-01-02 22:53:00
4:53 PM,3.0,-2.0,80,30.75,6.0,Calm,Calm,-,N/A,,Haze,0,2013-01-02 23:53:00
5:53 PM,-0.9,-4.0,87,30.78,5.0,WSW,3.5,-,N/A,,Haze,240,2013-01-03 00:53:00
6:53 PM,-0.9,-6.0,79,30.78,5.0,Calm,Calm,-,N/A,,Haze,0,2013-01-03 01:53:00
7:53 PM,-6.0,-11.0,79,30.81,4.0,Calm,Calm,-,N/A,,Haze,0,2013-01-03 02:53:00
8:32 PM,-9.4,-13.0,84,30.45,2.0,West,3.5,-,N/A,,Mostly Cloudy,260,2013-01-03 03:32:00
8:53 PM,-5.1,-8.0,87,30.79,3.0,Calm,Calm,-,N/A,,Scattered Clouds,0,2013-01-03 03:53:00
9:44 PM,-9.4,-11.2,92,30.46,0.2,Calm,Calm,-,N/A,Fog,Light Freezing Fog,0,2013-01-03 04:44:00
9:53 PM,-8.0,-11.9,83,30.79,0.2,Calm,Calm,-,N/A,Fog,Light Freezing Fog,0,2013-01-03 04:53:00
10:04 PM,-9.4,-11.2,92,30.46,0.2,Calm,Calm,-,N/A,Fog,Light Freezing Fog,0,2013-01-03 05:04:00
10:15 PM,-9.4,-11.2,92,30.46,0.2,Calm,Calm,-,N/A,Fog,Light Freezing Fog,0,2013-01-03 05:15:00
10:32 PM,-9.4,-13.0,84,30.46,0.5,Calm,Calm,-,N/A,Fog,Light Freezing Fog,0,2013-01-03 05:32:00
10:53 PM,-6.0,-9.0,87,30.77,1.0,Calm,Calm,-,N/A,,Overcast,0,2013-01-03 05:53:00
11:26 PM,-5.8,-9.4,84,30.46,3.0,Calm,Calm,-,N/A,,Overcast,0,2013-01-03 06:26:00
11:37 PM,-5.8,-9.4,84,30.46,1.8,Calm,Calm,-,N/A,,Overcast,0,2013-01-03 06:37:00
11:40 PM,-5.8,-9.4,84,30.46,0.8,Calm,Calm,-,N/A,,Mist,0,2013-01-03 06:40:00
11:53 PM,-6.0,-8.0,91,30.76,0.2,Calm,Calm,-,N/A,Fog,Light Freezing Fog,0,2013-01-03 06:53:00